EW4553 Weather Reports


time (UTC)temp
F
wind
direction
speed
knots
gust
knots
rain 1hr
in
rain 24hr
in
rain mn
in
humidity
%
barometer
mb
20260510175438 55 293 7.0 15.6 0.00 0.00 0.00 64 1013.6
20260510175144 55 26 7.0 15.6 0.00 0.00 0.00 65 1013.7
20260510174502 55 308 8.7 17.4 0.00 0.00 0.00 65 1013.6
20260510174423 55 339 7.0 17.4 0.00 0.00 0.00 65 1013.7
20260510173915 55 332 6.1 17.4 0.00 0.00 0.00 64 1013.8
20260510173413 55 308 6.1 13.0 0.00 0.00 0.00 66 1013.8
20260510173112 54 338 5.2 13.0 0.00 0.00 0.00 66 1013.7
20260510172911 55 10 7.0 15.6 0.00 0.00 0.00 65 1013.8
20260510172414 55 323 7.8 15.6 0.00 0.00 0.00 65 1013.8
20260510171857 55 307 8.7 15.6 0.00 0.00 0.00 65 1014.0
20260510171519 54 315 7.0 15.6 0.00 0.00 0.00 65 1013.8
20260510171358 55 326 8.7 15.6 0.00 0.00 0.00 65 1013.8
20260510171116 55 298 8.7 15.6 0.00 0.00 0.00 65 1013.8
20260510170347 56 297 8.7 18.2 0.00 0.00 0.00 65 1014.0
20260510170001 56 301 7.0 18.2 0.00 0.00 0.00 64 1013.9
20260510165808 56 338 8.7 18.2 0.00 0.00 0.00 64 1014.0
20260510165510 56 356 8.7 16.5 0.00 0.00 0.00 65 1013.8
20260510164720 56 345 9.6 19.1 0.00 0.00 0.00 64 1014.0
20260510164612 56 358 7.8 16.5 0.00 0.00 0.00 64 1013.9
20260510164221 57 321 10.4 19.1 0.00 0.00 0.00 63 1014.0
20260510163721 58 297 8.7 19.1 0.00 0.00 0.00 63 1014.1
20260510163432 58 325 7.8 19.1 0.00 0.00 0.00 63 1013.8
20260510163006 58 339 7.8 13.9 0.00 0.00 0.00 62 1013.9
20260510162934 58 1 7.8 14.8 0.00 0.00 0.00 61 1014.0
20260510162440 59 337 7.0 15.6 0.00 0.00 0.00 63 1014.2
20260510161711 58 343 8.7 16.5 0.00 0.00 0.00 62 1014.1
20260510161549 58 338 7.0 16.5 0.00 0.00 0.00 62 1014.0
20260510161148 59 328 8.7 16.5 0.00 0.00 0.00 62 1014.2
20260510160621 59 276 7.8 15.6 0.00 0.00 0.00 62 1014.2
20260510160132 58 29 8.7 17.4 0.00 0.00 0.00 62 1014.0
20260510160122 59 13 9.6 21.7 0.00 0.00 0.00 62 1014.2
20260510155816 59 339 9.6 21.7 0.00 0.00 0.00 62 1014.1
20260510155032 59 300 8.7 21.7 0.00 0.00 0.00 62 1014.2
20260510154615 59 303 7.8 21.7 0.00 0.00 0.00 63 1014.1
20260510154532 59 324 9.6 21.7 0.00 0.00 0.00 63 1014.3
20260510154032 60 328 8.7 16.5 0.00 0.00 0.00 62 1014.2
20260510153535 60 286 7.8 16.5 0.00 0.00 0.00 63 1014.4
20260510153048 59 303 8.7 14.8 0.00 0.00 0.00 62 1014.3
20260510153020 60 337 8.7 13.9 0.00 0.00 0.00 62 1014.5
20260510152451 59 337 8.7 17.4 0.00 0.00 0.00 62 1014.6
20260510151937 60 339 8.7 15.6 0.00 0.00 0.00 62 1014.6
20260510151628 60 35 9.6 17.4 0.00 0.00 0.00 62 1014.8
20260510151609 59 334 6.1 17.4 0.00 0.00 0.00 63 1014.5
20260510151111 60 338 8.7 14.8 0.00 0.00 0.00 63 1014.7
20260510150337 60 322 8.7 16.5 0.00 0.00 0.00 62 1014.8
20260510150050 59 354 8.7 16.5 0.00 0.00 0.00 63 1014.7
20260510145829 59 357 7.8 16.5 0.00 0.00 0.00 61 1014.8
20260510145326 60 359 7.8 14.8 0.00 0.00 0.00 60 1014.8
20260510144758 60 294 7.8 16.5 0.00 0.00 0.00 61 1014.8
20260510144558 60 312 7.0 14.8 0.00 0.00 0.00 62 1014.7
20260510144254 60 311 8.7 16.5 0.00 0.00 0.00 62 1014.8
20260510143750 60 308 8.7 16.5 0.00 0.00 0.00 62 1014.9
20260510143249 60 343 7.8 16.5 0.00 0.00 0.00 60 1015.0
20260510143007 60 1 7.8 16.5 0.00 0.00 0.00 60 1014.8
20260510142723 61 3 7.8 15.6 0.00 0.00 0.00 61 1015.1
20260510142427 61 339 8.7 15.6 0.00 0.00 0.00 59 1015.0
20260510141631 62 301 8.7 15.6 0.00 0.00 0.00 59 1015.0
20260510141602 61 339 7.8 15.6 0.00 0.00 0.00 60 1014.9
20260510141102 61 351 8.7 15.6 0.00 0.00 0.00 60 1015.0
20260510140601 61 311 7.8 15.6 0.00 0.00 0.00 60 1015.1
20260510140039 62 297 7.0 15.6 0.00 0.00 0.00 60 1015.1
20260510140010 62 318 8.7 15.6 0.00 0.00 0.00 60 1014.9
20260510135514 62 5 7.0 13.9 0.00 0.00 0.00 59 1015.2
20260510135239 62 353 7.0 15.6 0.00 0.00 0.00 60 1015.2
20260510134536 61 302 7.0 14.8 0.00 0.00 0.00 59 1015.0
20260510134448 62 346 7.8 15.6 0.00 0.00 0.00 59 1015.2
20260510134209 62 115 7.8 15.6 0.00 0.00 0.00 60 1015.1
20260510133432 62 340 7.8 15.6 0.00 0.00 0.00 59 1015.2
20260510133019 62 339 6.1 14.8 0.00 0.00 0.00 61 1015.0
20260510132935 63 358 8.7 18.2 0.00 0.00 0.00 61 1015.2
20260510132646 62 339 8.7 18.2 0.00 0.00 0.00 59 1015.2
20260510131920 63 9 7.8 18.2 0.00 0.00 0.00 59 1015.1
20260510131546 62 355 7.0 18.2 0.00 0.00 0.00 60 1014.9
20260510131417 62 296 7.8 18.2 0.00 0.00 0.00 59 1015.1
20260510130915 62 331 8.7 17.4 0.00 0.00 0.00 60 1015.1
20260510130347 62 1 8.7 18.2 0.00 0.00 0.00 58 1015.0
20260510130058 62 3 8.7 16.5 0.00 0.00 0.00 56 1014.9
20260510125834 64 344 7.0 18.2 0.00 0.00 0.00 56 1015.1
20260510125334 63 338 7.0 18.2 0.00 0.00 0.00 58 1015.2
20260510124810 63 16 7.8 18.2 0.00 0.00 0.00 56 1015.3
20260510124520 63 353 7.8 14.8 0.00 0.00 0.00 58 1015.2
20260510124243 63 8 7.8 14.8 0.00 0.00 0.00 58 1015.4
20260510123747 63 309 7.8 13.9 0.00 0.00 0.00 58 1015.4
20260510123221 63 301 8.7 13.9 0.00 0.00 0.00 57 1015.5
20260510123044 63 337 8.7 13.9 0.00 0.00 0.00 57 1015.3
20260510122717 63 308 8.7 15.6 0.00 0.00 0.00 58 1015.5
20260510122213 63 21 8.7 16.5 0.00 0.00 0.00 58 1015.5
20260510121711 63 24 8.7 16.5 0.00 0.00 0.00 58 1015.7
20260510121532 62 339 6.1 16.5 0.00 0.00 0.00 59 1015.4
20260510121205 63 337 8.7 14.8 0.00 0.00 0.00 58 1015.7
20260510120702 62 327 8.7 16.5 0.00 0.00 0.00 59 1015.7
20260510120156 63 337 8.7 16.5 0.00 0.00 0.00 58 1015.6
20260510120129 62 43 8.7 15.6 0.00 0.00 0.00 58 1015.6
20260510120042 62 308 8.7 16.5 0.00 0.00 0.00 58 1015.4
20260510115143 62 349 8.7 15.6 0.00 0.00 0.00 57 1015.8
20260510114640 62 23 7.8 15.6 0.00 0.00 0.00 60 1015.8
20260510114536 62 354 7.0 14.8 0.00 0.00 0.00 60 1015.6
20260510114143 62 8 7.8 15.6 0.00 0.00 0.00 61 1015.9
20260510113619 62 10 8.7 21.7 0.00 0.00 0.00 60 1016.0
20260510113115 62 333 8.7 21.7 0.00 0.00 0.00 58 1016.0
20260510113002 61 360 8.7 15.6 0.00 0.00 0.00 59 1015.8
20260510112615 62 304 9.6 21.7 0.00 0.00 0.00 61 1015.9
20260510112114 61 339 9.6 21.7 0.00 0.00 0.00 62 1015.8
20260510111617 61 318 7.8 17.4 0.00 0.00 0.00 61 1015.8
20260510111551 61 308 7.8 18.2 0.00 0.00 0.00 61 1016.0
20260510111051 60 358 8.7 18.2 0.00 0.00 0.00 63 1016.0
20260510110547 60 337 8.7 18.2 0.00 0.00 0.00 64 1016.1
20260510110327 60 302 8.7 18.2 0.00 0.00 0.00 63 1015.9
20260510110032 59 320 9.6 15.6 0.00 0.00 0.00 63 1015.8
20260510105545 60 335 8.7 20.0 0.00 0.00 0.00 62 1016.1
20260510105044 61 303 8.7 20.0 0.00 0.00 0.00 60 1016.2
20260510104600 61 356 7.8 15.6 0.00 0.00 0.00 60 1015.9
20260510104544 62 322 8.7 15.6 0.00 0.00 0.00 60 1016.1
20260510104044 62 337 9.6 19.1 0.00 0.00 0.00 62 1016.1
20260510103532 61 337 10.4 19.1 0.00 0.00 0.00 61 1016.1
20260510103044 61 301 7.8 16.5 0.00 0.00 0.00 62 1015.9
20260510103032 61 311 9.6 16.5 0.00 0.00 0.00 62 1016.1
20260510102534 61 312 9.6 16.5 0.00 0.00 0.00 61 1016.2
20260510102032 61 293 8.7 22.6 0.00 0.00 0.00 63 1016.1
20260510101535 61 313 8.7 22.6 0.00 0.00 0.00 62 1016.1
20260510101505 60 337 7.0 15.6 0.00 0.00 0.00 63 1015.9
20260510101008 60 338 10.4 22.6 0.00 0.00 0.00 62 1016.2
20260510100509 60 311 9.6 22.6 0.00 0.00 0.00 61 1016.2
20260510100006 59 297 7.8 17.4 0.00 0.00 0.00 64 1016.0
20260510095953 60 312 8.7 17.4 0.00 0.00 0.00 64 1016.1
20260510095453 60 353 8.7 17.4 0.00 0.00 0.00 63 1016.2
20260510094953 60 317 8.7 17.4 0.00 0.00 0.00 65 1016.2
20260510094525 58 13 7.0 17.4 0.00 0.00 0.00 66 1016.0
20260510094445 59 39 9.6 17.4 0.00 0.00 0.00 67 1016.2
20260510093947 59 349 10.4 18.2 0.00 0.00 0.00 66 1016.2
20260510093423 58 346 10.4 18.2 0.00 0.00 0.00 65 1016.2
20260510093109 58 307 9.6 18.2 0.00 0.00 0.00 65 1016.1
20260510092904 59 292 9.6 20.9 0.00 0.00 0.00 65 1016.2
20260510092342 59 41 8.7 20.9 0.00 0.00 0.00 67 1016.2
20260510091823 58 353 9.6 20.9 0.00 0.00 0.00 68 1016.2
20260510091515 57 339 8.7 20.9 0.00 0.00 0.00 67 1016.2
20260510091325 58 330 9.6 20.9 0.00 0.00 0.00 66 1016.2
20260510090825 58 331 8.7 17.4 0.00 0.00 0.00 68 1016.3
20260510090316 57 330 9.6 17.4 0.00 0.00 0.00 68 1016.4
20260510090009 57 288 9.6 17.4 0.00 0.00 0.00 69 1016.3
20260510085812 57 310 9.6 17.4 0.00 0.00 0.00 69 1016.5
20260510085314 57 320 10.4 20.0 0.00 0.00 0.00 70 1016.5
20260510084749 56 339 10.4 20.0 0.00 0.00 0.00 70 1016.6
20260510084505 55 311 9.6 17.4 0.00 0.00 0.00 71 1016.4
20260510084226 56 339 9.6 17.4 0.00 0.00 0.00 70 1016.6
20260510083704 55 0 9.6 17.4 0.00 0.00 0.00 70 1016.6
20260510083136 55 337 9.6 19.1 0.00 0.00 0.00 71 1016.7
20260510083018 55 344 8.7 17.4 0.00 0.00 0.00 71 1016.5
20260510082629 55 344 9.6 19.1 0.00 0.00 0.00 71 1016.6
20260510082132 55 339 10.4 19.1 0.00 0.00 0.00 71 1016.6
20260510081828 55 301 9.6 15.6 0.00 0.00 0.00 72 1016.7
20260510081514 54 351 10.4 15.6 0.00 0.00 0.00 72 1016.6
20260510081100 55 306 8.7 14.8 0.00 0.00 0.00 74 1016.8
20260510080548 55 308 8.7 14.8 0.00 0.00 0.00 74 1016.8
20260510080054 54 314 8.7 17.4 0.00 0.00 0.00 74 1016.7
20260510080005 54 299 8.7 17.4 0.00 0.00 0.00 74 1016.7
20260510075440 54 311 9.6 17.4 0.00 0.00 0.00 74 1016.9
20260510074927 54 344 8.7 17.4 0.00 0.00 0.00 74 1016.9
20260510074606 53 323 9.6 17.4 0.00 0.00 0.00 75 1016.7
20260510074428 53 332 7.8 17.4 0.00 0.00 0.00 76 1016.8
20260510074147 53 19 7.8 16.5 0.00 0.00 0.00 76 1016.7
20260510073647 53 3 7.8 16.5 0.00 0.00 0.00 77 1016.7
20260510073040 52 335 7.0 17.4 0.00 0.00 0.00 77 1016.6
20260510072858 52 313 9.6 22.6 0.00 0.00 0.00 77 1016.7
20260510072329 52 337 9.6 22.6 0.00 0.00 0.00 77 1016.6
20260510071804 52 29 8.7 22.6 0.00 0.00 0.00 78 1016.8
20260510071517 51 336 8.7 22.6 0.00 0.00 0.00 78 1016.6
20260510071236 52 351 8.7 22.6 0.00 0.00 0.00 78 1016.7
20260510070734 51 337 8.7 17.4 0.00 0.00 0.00 79 1016.6
20260510070228 51 39 9.6 17.4 0.00 0.00 0.00 79 1016.7
20260510070029 51 302 10.4 17.4 0.00 0.00 0.00 79 1016.5
20260510065725 51 331 8.7 17.4 0.00 0.00 0.00 79 1016.7
20260510065157 51 314 7.8 17.4 0.00 0.00 0.00 80 1016.6
20260510064656 51 348 8.7 17.4 0.00 0.00 0.00 81 1016.6
20260510064517 50 325 7.8 17.4 0.00 0.00 0.00 81 1016.5
20260510064346 50 358 8.7 17.4 0.00 0.00 0.00 81 1016.5
20260510063626 50 301 8.7 15.6 0.00 0.00 0.00 82 1016.6
20260510063319 49 290 8.7 15.6 0.00 0.00 0.00 82 1016.5
20260510063009 49 292 7.8 15.6 0.00 0.00 0.00 82 1016.4
20260510062553 49 341 8.7 15.6 0.00 0.00 0.00 82 1016.5
20260510062049 49 301 7.8 15.6 0.00 0.00 0.00 82 1016.5
20260510061813 49 301 8.7 15.6 0.00 0.00 0.00 82 1016.5
20260510061519 49 316 7.0 14.8 0.00 0.00 0.00 82 1016.4
20260510061039 49 339 8.7 15.6 0.00 0.00 0.00 83 1016.5
20260510060537 49 21 7.8 15.6 0.00 0.00 0.00 83 1016.5
20260510060052 48 317 7.0 13.0 0.00 0.00 0.00 83 1016.4
20260510060010 49 329 7.8 13.0 0.00 0.00 0.00 83 1016.6
20260510055659 48 8 7.8 14.8 0.00 0.00 0.00 84 1016.5
20260510054941 48 306 7.8 14.8 0.00 0.00 0.00 84 1016.6
20260510054505 47 342 7.0 13.9 0.00 0.00 0.00 84 1016.4
20260510054416 48 347 7.0 14.8 0.00 0.00 0.00 84 1016.5
20260510053913 47 309 7.0 14.8 0.00 0.00 0.00 84 1016.5
20260510053412 47 316 7.8 14.8 0.00 0.00 0.00 84 1016.5
20260510053019 47 319 7.8 14.8 0.00 0.00 0.00 84 1016.3
20260510052846 47 304 7.0 14.8 0.00 0.00 0.00 84 1016.5
20260510052320 47 357 7.0 13.9 0.00 0.00 0.00 83 1016.5
20260510051811 47 315 7.8 16.5 0.00 0.00 0.00 83 1016.6
20260510051504 47 303 7.8 16.5 0.00 0.00 0.00 83 1016.5
20260510051309 47 307 7.8 16.5 0.00 0.00 0.00 83 1016.6
20260510050745 47 311 7.0 15.6 0.00 0.00 0.00 83 1016.7
20260510050226 47 323 7.8 15.6 0.00 0.00 0.00 82 1016.7
20260510050053 47 329 6.1 15.6 0.00 0.00 0.00 82 1016.6
20260510045712 47 339 7.8 15.6 0.00 0.00 0.00 82 1016.8
20260510045146 47 332 7.0 15.6 0.00 0.00 0.00 81 1016.7
20260510044618 47 319 6.1 13.0 0.00 0.00 0.00 80 1016.7
20260510044533 47 297 7.0 12.2 0.00 0.00 0.00 80 1016.6
20260510044114 47 299 6.1 13.0 0.00 0.00 0.00 79 1016.7
20260510043547 48 296 7.0 16.5 0.00 0.00 0.00 79 1016.7
20260510043246 48 338 7.0 16.5 0.00 0.00 0.00 78 1016.6
20260510043106 47 15 7.8 14.8 0.00 0.00 0.00 78 1016.4
20260510042455 48 359 7.8 16.5 0.00 0.00 0.00 77 1016.6
20260510041954 48 349 8.7 16.5 0.00 0.00 0.00 77 1016.6
20260510041556 48 339 7.8 14.8 0.00 0.00 0.00 76 1016.4
20260510041425 48 331 8.7 14.8 0.00 0.00 0.00 76 1016.5
20260510040925 48 15 8.7 14.8 0.00 0.00 0.00 75 1016.6
20260510040355 48 315 8.7 14.8 0.00 0.00 0.00 75 1016.5
20260510040115 48 305 8.7 14.8 0.00 0.00 0.00 74 1016.5
20260510040045 48 337 7.8 14.8 0.00 0.00 0.00 74 1016.3
20260510035548 49 339 8.7 14.8 0.00 0.00 0.00 74 1016.5
20260510034802 49 301 8.7 14.8 0.00 0.00 0.00 73 1016.5
20260510034517 48 321 7.8 14.8 0.00 0.00 0.00 73 1016.4
20260510034240 49 22 8.7 14.8 0.00 0.00 0.00 73 1016.6
20260510033742 49 337 7.8 14.8 0.00 0.00 0.00 73 1016.6
20260510033500 49 298 7.0 12.2 0.00 0.00 0.00 72 1016.7
20260510033039 49 337 6.1 12.2 0.00 0.00 0.00 72 1016.6
20260510033003 49 297 7.0 13.0 0.00 0.00 0.00 72 1016.7
20260510032213 50 299 7.0 13.0 0.00 0.00 0.00 71 1016.8
20260510031927 50 343 7.0 13.0 0.00 0.00 0.00 70 1016.8
20260510031505 50 297 7.0 13.0 0.00 0.00 0.00 70 1016.6
20260510031205 50 294 7.0 13.9 0.00 0.00 0.00 70 1016.7
20260510030656 50 17 7.0 13.9 0.00 0.00 0.00 69 1016.7
20260510030157 51 306 7.8 14.8 0.00 0.00 0.00 69 1016.8
20260510030034 50 338 7.0 14.8 0.00 0.00 0.00 69 1016.6
20260510025653 51 305 7.8 14.8 0.00 0.00 0.00 68 1016.7
20260510025156 51 320 7.8 13.0 0.00 0.00 0.00 68 1016.8
20260510024641 51 317 7.8 13.0 0.00 0.00 0.00 68 1016.8
20260510024542 51 331 7.8 13.0 0.00 0.00 0.00 68 1016.7
20260510024405 52 318 6.1 13.0 0.00 0.00 0.00 68 1016.9
20260510023837 52 304 7.0 13.9 0.00 0.00 0.00 68 1016.8
20260510023109 52 24 7.0 13.9 0.00 0.00 0.00 67 1016.7
20260510023032 52 294 7.0 13.9 0.00 0.00 0.00 67 1016.5
20260510022608 52 334 7.0 13.9 0.00 0.00 0.00 67 1016.6
20260510022554 53 311 6.1 13.9 0.00 0.00 0.00 67 1016.5
20260510021607 53 348 6.1 14.8 0.00 0.00 0.00 67 1016.5
20260510021508 52 323 6.1 14.8 0.00 0.00 0.00 68 1016.4
20260510021107 53 343 6.1 14.8 0.00 0.00 0.00 67 1016.6
20260510020605 53 339 6.1 14.8 0.00 0.00 0.00 67 1016.7
20260510020328 53 341 7.0 13.0 0.00 0.00 0.00 68 1016.7
20260510020046 53 327 5.2 14.8 0.00 0.00 0.00 68 1016.6
20260510015547 53 301 7.8 14.8 0.00 0.00 0.00 68 1016.7
20260510015030 53 339 7.8 13.9 0.00 0.00 0.00 68 1016.6
20260510014726 54 301 7.8 13.9 0.00 0.00 0.00 68 1016.5
20260510014521 53 312 6.1 13.9 0.00 0.00 0.00 68 1016.4
20260510014006 54 310 8.7 13.9 0.00 0.00 0.00 69 1016.4
20260510013946 54 304 7.8 13.9 0.00 0.00 0.00 69 1016.4
20260510013043 54 338 7.8 13.0 0.00 0.00 0.00 70 1016.3
20260510013004 54 320 7.0 13.0 0.00 0.00 0.00 70 1016.5
20260510012439 54 332 7.0 13.0 0.00 0.00 0.00 70 1016.5
20260510011937 54 353 6.1 12.2 0.00 0.00 0.00 71 1016.6
20260510011542 54 342 5.2 10.4 0.00 0.00 0.00 71 1016.5
20260510011420 54 353 5.2 12.2 0.00 0.00 0.00 71 1016.6
20260510010921 55 311 6.1 12.2 0.00 0.00 0.00 72 1016.6
20260510010416 55 316 6.1 12.2 0.00 0.00 0.00 72 1016.5
20260510010121 54 349 4.3 11.3 0.00 0.00 0.00 72 1016.4
20260510005903 55 301 5.2 11.3 0.00 0.00 0.00 72 1016.6
20260510005405 55 316 5.2 11.3 0.00 0.00 0.00 72 1016.6
20260510005057 55 339 5.2 11.3 0.00 0.00 0.00 73 1016.5
20260510004610 55 338 4.3 11.3 0.00 0.00 0.00 73 1016.5
20260510004332 55 350 4.3 11.3 0.00 0.00 0.00 73 1016.7
20260510003829 55 313 4.3 9.6 0.00 0.00 0.00 74 1016.7
20260510003327 55 342 4.3 9.6 0.00 0.00 0.00 74 1016.6
20260510003105 55 314 4.3 9.6 0.00 0.00 0.00 74 1016.5
20260510002803 55 288 4.3 9.6 0.00 0.00 0.00 74 1016.7
20260510002257 55 307 5.2 12.2 0.00 0.00 0.00 74 1016.6
20260510001757 56 334 6.1 12.2 0.00 0.00 0.00 75 1016.7
20260510001535 55 337 6.1 10.4 0.00 0.00 0.00 75 1016.6
20260510001256 56 306 7.0 12.2 0.00 0.00 0.00 75 1016.7
20260510000756 56 302 7.0 12.2 0.00 0.00 0.00 76 1016.7
20260510000259 56 316 7.0 11.3 0.00 0.00 0.00 76 1016.6
20260510000016 55 306 6.1 11.3 0.00 0.00 0.00 76 1016.5
20260509235955 56 334 6.1 11.3 0.00 0.00 0.00 76 1016.6
20260509235212 56 302 5.2 10.4 0.00 0.00 0.00 76 1016.6
20260509234712 56 344 5.2 10.4 0.00 0.00 0.00 76 1016.6
20260509234621 55 354 5.2 10.4 0.00 0.00 0.00 76 1016.5
20260509234209 56 312 5.2 9.6 0.00 0.00 0.00 77 1016.7
20260509233929 56 312 5.2 9.6 0.00 0.00 0.00 78 1016.7
20260509233139 56 323 5.2 9.6 0.00 0.00 0.00 78 1016.7
20260509233006 55 313 6.1 9.6 0.00 0.00 0.00 78 1016.5
20260509232850 56 311 5.2 9.6 0.00 0.00 0.00 78 1016.6
20260509232127 56 311 3.5 7.8 0.00 0.00 0.00 78 1016.6
20260509231557 56 339 2.6 7.0 0.00 0.00 0.00 78 1016.5
20260509231525 56 357 2.6 7.0 0.00 0.00 0.00 78 1016.4
20260509231029 56 3 4.3 10.4 0.00 0.00 0.00 78 1016.5
20260509230512 56 304 5.2 10.4 0.00 0.00 0.00 78 1016.5
20260509230046 56 309 4.3 10.4 0.00 0.00 0.00 78 1016.3
20260509230014 56 306 5.2 10.4 0.00 0.00 0.00 77 1016.4
20260509225457 56 304 4.3 10.4 0.00 0.00 0.00 77 1016.4
20260509224957 57 304 4.3 7.8 0.00 0.00 0.00 77 1016.4
20260509224538 56 299 3.5 9.6 0.00 0.00 0.00 77 1016.2
20260509224500 57 339 5.2 10.4 0.00 0.00 0.00 77 1016.3
20260509224213 57 285 5.2 10.4 0.00 0.00 0.00 77 1016.3
20260509223454 57 313 5.2 10.4 0.00 0.00 0.00 77 1016.2
20260509223056 56 342 6.1 10.4 0.00 0.00 0.00 76 1016.1
20260509222926 57 313 5.2 10.4 0.00 0.00 0.00 76 1016.3
20260509222423 57 301 6.1 10.4 0.00 0.00 0.00 76 1016.3
20260509221855 57 299 7.0 9.6 0.00 0.00 0.00 76 1016.2
20260509221526 56 304 6.1 9.6 0.00 0.00 0.00 75 1016.0
20260509221353 57 292 6.1 9.6 0.00 0.00 0.00 75 1016.1
20260509220847 57 303 6.1 9.6 0.00 0.00 0.00 74 1016.2
20260509220345 57 313 6.1 9.6 0.00 0.00 0.00 73 1016.2
20260509220258 57 283 6.1 8.7 0.00 0.00 0.00 73 1016.2
20260509220108 56 303 5.2 8.7 0.00 0.00 0.00 73 1016.0
20260509215807 57 313 7.0 10.4 0.00 0.00 0.00 72 1016.2
20260509214810 57 298 6.1 10.4 0.00 0.00 0.00 71 1016.2
20260509214520 57 304 6.1 8.7 0.00 0.00 0.00 70 1016.1
20260509214506 58 305 6.1 10.4 0.00 0.00 0.00 70 1016.3
20260509213738 58 305 7.0 10.4 0.00 0.00 0.00 68 1016.2
20260509213224 58 304 6.1 10.4 0.00 0.00 0.00 68 1016.2
20260509213015 58 334 6.1 10.4 0.00 0.00 0.00 67 1016.0
20260509212956 59 308 5.2 8.7 0.00 0.00 0.00 67 1016.1
20260509212210 59 303 5.2 8.7 0.00 0.00 0.00 66 1016.1
20260509211909 59 303 6.1 9.6 0.00 0.00 0.00 66 1016.1
20260509211554 59 323 5.2 8.7 0.00 0.00 0.00 66 1015.9
20260509211144 59 302 6.1 8.7 0.00 0.00 0.00 66 1016.0
20260509210855 59 296 6.1 9.6 0.00 0.00 0.00 66 1016.0
20260509210131 60 298 6.1 8.7 0.00 0.00 0.00 66 1016.1
20260509210104 59 301 5.2 8.7 0.00 0.00 0.00 66 1015.9
20260509205626 60 320 6.1 9.6 0.00 0.00 0.00 66 1016.0
20260509205121 60 300 6.1 9.6 0.00 0.00 0.00 66 1016.0
20260509204620 60 314 5.2 8.7 0.00 0.00 0.00 66 1015.9
20260509204529 60 304 4.3 8.7 0.00 0.00 0.00 66 1015.7
20260509204119 60 302 6.1 8.7 0.00 0.00 0.00 65 1015.8
20260509203559 60 299 6.1 8.7 0.00 0.00 0.00 65 1015.7
20260509203106 60 313 6.1 10.4 0.00 0.00 0.00 65 1015.5
20260509203058 61 322 6.1 10.4 0.00 0.00 0.00 65 1015.7
20260509202532 61 293 5.2 9.6 0.00 0.00 0.00 65 1015.6
20260509202008 61 303 4.3 8.7 0.00 0.00 0.00 64 1015.7
20260509201523 60 304 4.3 7.0 0.00 0.00 0.00 65 1015.6
20260509201442 61 304 3.5 7.0 0.00 0.00 0.00 65 1015.7
20260509200921 61 295 3.5 7.0 0.00 0.00 0.00 65 1015.7
20260509200419 61 312 2.6 7.0 0.00 0.00 0.00 65 1015.7
20260509200110 60 306 3.5 6.1 0.00 0.00 0.00 65 1015.5
20260509195920 61 306 0.9 5.2 0.00 0.00 0.00 65 1015.7
20260509195418 61 275 0.0 0.0 0.00 0.00 0.00 66 1015.6
20260509195139 61 236 0.0 0.0 0.00 0.00 0.00 65 1015.6
20260509194545 61 236 0.0 0.0 0.00 0.00 0.00 65 1015.5
20260509194354 61 236 0.0 0.0 0.00 0.00 0.00 65 1015.6
20260509193850 62 232 0.0 0.0 0.00 0.00 0.00 64 1015.6
20260509193351 62 232 0.0 0.0 0.00 0.00 0.00 64 1015.5
20260509193029 61 158 0.0 0.0 0.00 0.00 0.00 63 1015.4
20260509192843 62 157 0.0 0.0 0.00 0.00 0.00 63 1015.6
20260509192341 62 145 0.0 0.0 0.00 0.00 0.00 63 1015.5
20260509191840 62 145 0.0 0.0 0.00 0.00 0.00 63 1015.5
20260509191603 62 145 0.0 0.0 0.00 0.00 0.00 63 1015.5
20260509191534 62 145 0.0 0.0 0.00 0.00 0.00 64 1015.3
20260509190816 62 145 0.0 0.0 0.00 0.00 0.00 63 1015.4
20260509190255 62 145 0.0 0.0 0.00 0.00 0.00 62 1015.4
20260509190012 62 145 0.0 0.0 0.00 0.00 0.00 60 1015.2
20260509185956 63 145 0.0 0.0 0.00 0.00 0.00 61 1015.3
20260509185209 63 145 0.0 0.0 0.00 0.00 0.00 59 1015.3
20260509184659 63 145 0.0 0.0 0.00 0.00 0.00 58 1015.4
20260509184601 62 145 0.0 0.0 0.00 0.00 0.00 59 1015.2
20260509184200 63 145 0.0 0.0 0.00 0.00 0.00 59 1015.5
20260509183638 63 145 0.0 0.9 0.00 0.00 0.00 58 1015.5
20260509183138 63 145 0.0 0.9 0.00 0.00 0.00 58 1015.4
20260509183010 63 145 0.0 0.9 0.00 0.00 0.00 58 1015.2
20260509182631 63 145 0.0 0.0 0.00 0.00 0.00 58 1015.4
20260509182122 64 145 0.0 0.0 0.00 0.00 0.00 58 1015.4
20260509181835 64 145 0.0 0.0 0.00 0.00 0.00 57 1015.4
20260509181823 64 145 0.0 0.0 0.00 0.00 0.00 57 1015.4
20260509181537 63 145 0.0 0.0 0.00 0.00 0.00 57 1015.3
20260509180554 64 145 0.0 0.0 0.00 0.00 0.00 57 1015.3
20260509180029 64 145 0.0 0.0 0.00 0.00 0.00 56 1015.3
20260509180019 63 145 0.0 0.0 0.00 0.00 0.00 56 1015.2